date,time,DOY,Ta_1_1_1,Pa_1_1_1,RH_1_1_1,LWin_1_1_1,LWout_1_1_1,SWin_1_1_1,SWout_1_1_1,PPFD_1_1_1,MWS_1_1_1,WD_1_1_1,SWC_1_1_1,Ts_1_1_1
[yyyy-mm-dd],[HH:MM],[ddd.ddd],[K],[Pa],[%],[W+1m-2],[W+1m-2],[W+1m-2],[W+1m-2],[µmol+1m-2s-1],[m+1s-1],[deg],[m+3m-3],[K]
2018-01-20,00:30,20.020,275.27266666666674,92995.833333333328,57.354333333333322,321.36333333333334,300.17733333333331,0.35566666666666669,-0.97400000000000009,4.33333333333333313E-003,5.8866666666666676,204.96700000000001,0.25999999999999984,273.22233333333338
2018-01-20,01:00,20.041,275.05233333333342,93017.699999999997,58.439666666666668,319.68166666666667,281.53100000000001,0.42233333333333345,-1.7936666666666661,1.16666666666666672E-002,6.2166666666666677,212.64399999999998,0.25999999999999984,273.21866666666671
2018-01-20,01:30,20.062,274.73333333333341,93020.466666666660,59.885666666666665,318.61633333333327,285.50333333333339,0.35099999999999992,-1.5406666666666664,9.66666666666666369E-003,6.9866666666666655,212.62266666666667,0.25999999999999984,273.21800000000002
2018-01-20,02:00,20.083,274.36366666666669,93050.500000000000,61.552000000000000,316.66299999999995,276.51966666666664,0.39466666666666667,-1.9706666666666663,2.40000000000000074E-002,5.8600000000000003,205.47833333333335,0.25999999999999984,273.21766666666667
2018-01-20,02:30,20.104,273.85400000000004,93068.333333333328,63.472666666666676,313.92433333333332,263.30366666666663,0.59999999999999998,-2.4359999999999999,7.66666666666666798E-003,5.5933333333333328,209.93333333333334,0.25999999999999984,273.22066666666666
2018-01-20,03:00,20.124,273.48433333333338,93085.033333333340,65.002999999999986,312.04666666666674,258.33400000000000,0.71000000000000008,-2.5346666666666668,-1.00000000000000002E-003,5.6166666666666663,210.36733333333333,0.25999999999999984,273.21966666666668
2018-01-20,03:30,20.145,273.33033333333339,93132.666666666672,65.923333333333332,311.09099999999995,253.46666666666673,0.83033333333333315,-2.6520000000000001,9.00000000000000105E-003,6.0600000000000014,213.14399999999998,0.25999999999999984,273.22233333333338
2018-01-20,04:00,20.166,273.18233333333325,93174.866666666669,66.904333333333341,310.05500000000001,249.32000000000002,0.83433333333333315,-2.8086666666666669,-2.66666666666666658E-003,6.0366666666666671,211.35533333333333,0.25999999999999984,273.22366666666676
2018-01-20,04:30,20.187,273.10766666666683,93237.199999999997,67.588000000000008,309.78033333333332,252.03466666666665,0.82700000000000007,-2.6646666666666667,1.56666666666666690E-002,6.2866666666666662,215.33400000000000,0.25999999999999984,273.21899999999999
2018-01-20,05:00,20.208,273.17133333333328,93309.366666666669,67.680999999999997,310.56666666666661,257.03600000000000,0.75066666666666648,-2.4136666666666660,-1.33333333333333307E-003,6.1033333333333335,219.77799999999999,0.25999999999999984,273.22066666666677
2018-01-20,05:30,20.229,273.18199999999996,93352.800000000003,68.542000000000002,310.75233333333330,264.49833333333339,0.63700000000000001,-2.1486666666666663,2.00000000000000004E-003,5.7300000000000004,221.11099999999999,0.25999999999999984,273.22433333333333
2018-01-20,06:00,20.249,273.67800000000005,93383.766666666663,67.662333333333336,312.03033333333343,253.10500000000002,0.89633333333333320,-2.7213333333333343,1.33333333333333342E-002,5.5366666666666671,228.65600000000001,0.25999999999999984,273.22366666666670
2018-01-20,06:30,20.270,273.64900000000000,93407.233333333337,68.443000000000012,311.29499999999996,247.19966666666670,0.97199999999999998,-3.2400000000000007,5.66666666666666707E-003,5.1033333333333335,230.53333333333333,0.25999999999999984,273.22400000000005
2018-01-20,07:00,20.291,273.40633333333329,93448.266666666663,69.518333333333345,310.69833333333332,246.22033333333334,0.87033333333333318,-3.3080000000000003,7.66666666666666712E-003,5.3499999999999996,232.57666666666665,0.25999999999999984,273.22266666666667
2018-01-20,07:30,20.312,273.02133333333336,93492.966666666660,71.411666666666648,308.49366666666680,243.92133333333331,0.93399999999999994,-3.4633333333333334,1.36666666666666672E-002,4.4366666666666665,228.07733333333331,0.25999999999999984,273.22399999999993
2018-01-20,08:00,20.333,272.55766666666671,93562.500000000000,73.311666666666667,306.34533333333331,242.43900000000002,1.0433333333333337,-3.4320000000000004,3.66666666666666703E-003,4.0733333333333341,224.38866666666667,0.25999999999999984,273.22666666666663
2018-01-20,08:30,20.354,272.17433333333344,93600.300000000003,75.135999999999996,304.61533333333341,241.80633333333338,1.0473333333333334,-3.3576666666666664,4.00000000000000008E-003,4.1366666666666667,224.03299999999999,0.25999999999999984,273.22366666666665
2018-01-20,09:00,20.374,271.73800000000011,93652.233333333337,77.098666666666688,302.87199999999996,240.74300000000002,1.0286666666666666,-3.2816666666666658,-1.73333333333333325E-002,4.1466666666666665,215.62166666666664,0.25999999999999984,273.22266666666661
2018-01-20,09:30,20.395,271.20966666666675,93672.666666666672,79.208666666666687,301.00233333333330,239.20533333333339,1.0540000000000003,-3.2500000000000004,-8.00000000000000017E-003,3.8933333333333335,212.03299999999999,0.25999999999999984,273.22400000000005
2018-01-20,10:00,20.416,270.88333333333327,93693.666666666672,80.664000000000016,299.47166666666664,237.88700000000003,1.1979999999999997,-3.2009999999999996,-8.00000000000000017E-003,3.6933333333333338,218.35533333333333,0.25999999999999984,273.22533333333342
2018-01-20,10:30,20.437,270.76666666666682,93743.733333333337,81.651666666666671,298.74233333333331,238.06366666666662,1.0873333333333333,-3.0959999999999996,-3.66666666666666703E-003,4.1599999999999993,227.18899999999999,0.25999999999999984,273.22933333333339
2018-01-20,11:00,20.458,270.89499999999992,93800.000000000000,82.167333333333332,298.60566666666665,238.90900000000005,1.1613333333333331,-3.1830000000000003,4.33333333333333313E-003,3.4099999999999997,238.33433333333335,0.25999999999999984,273.22733333333332
2018-01-20,11:30,20.479,270.99966666666671,93853.333333333328,82.515666666666661,298.38833333333332,238.99433333333329,1.2863333333333336,-3.2843333333333331,-6.00000000000000012E-003,2.9933333333333327,243.52233333333336,0.25999999999999984,273.22933333333339
2018-01-20,12:00,20.499,271.11000000000001,93852.966666666660,82.707333333333338,297.75066666666669,239.32333333333335,1.2776666666666670,-3.4506666666666677,-2.66666666666666701E-003,2.5200000000000000,245.81166666666667,0.25999999999999984,273.22866666666670
2018-01-20,12:30,20.520,271.20066666666673,93873.500000000000,82.547000000000011,297.05033333333336,239.36499999999998,1.2363333333333337,-3.5393333333333334,-5.00000000000000010E-003,2.4800000000000000,233.81100000000004,0.25999999999999984,273.22633333333329
2018-01-20,13:00,20.541,270.14533333333333,93903.133333333331,84.684333333333356,295.59866666666670,238.26399999999998,0.54199999999999993,-3.6103333333333327,2.00000000000000004E-002,3.4099999999999997,204.81133333333335,0.25999999999999984,273.22666666666669
2018-01-20,13:30,20.562,269.60933333333338,93941.133333333331,86.095999999999989,293.88333333333333,238.46733333333333,0.84299999999999986,-2.3503333333333338,1.8876666666666666,3.7833333333333328,212.26733333333334,0.25999999999999984,273.22866666666675
2018-01-20,14:00,20.583,269.20666666666665,93984.233333333337,86.685666666666663,293.37566666666669,244.20566666666667,4.4533333333333331,15.958333333333334,33.097000000000001,4.2533333333333330,213.03366666666668,0.25999999999999984,273.22633333333323
2018-01-20,14:30,20.604,269.31233333333330,94033.600000000006,86.813333333333347,296.62133333333321,260.51299999999998,15.026333333333334,70.926000000000002,120.72733333333332,4.5733333333333341,214.50100000000003,0.25999999999999984,273.23099999999988
2018-01-20,15:00,20.624,269.72766666666661,94087.399999999994,86.313666666666649,298.64933333333335,258.82766666666669,15.915333333333333,85.712666666666664,168.81466666666662,3.9900000000000002,209.72133333333335,0.25999999999999984,273.22900000000004
2018-01-20,15:30,20.645,270.17033333333330,94152.500000000000,85.527999999999992,301.80700000000002,256.99566666666664,30.553333333333331,175.62633333333335,322.15933333333328,4.2499999999999991,218.84333333333331,0.25999999999999984,273.22933333333333
2018-01-20,16:00,20.666,271.00299999999999,94195.833333333328,84.300333333333342,306.15000000000003,257.05666666666667,36.706333333333340,217.94666666666666,404.77133333333325,3.7933333333333339,220.04366666666664,0.25999999999999984,273.23066666666665
2018-01-20,16:30,20.687,271.99133333333339,94218.699999999997,81.956999999999979,311.25366666666662,281.61866666666663,36.396333333333331,200.45766666666665,400.58899999999994,3.0833333333333330,231.62199999999999,0.25999999999999984,273.22766666666661
2018-01-20,17:00,20.708,272.87633333333338,94250.133333333331,79.411333333333332,314.96866666666665,294.90033333333332,30.810333333333343,159.68666666666667,327.93966666666660,2.5066666666666673,229.44566666666668,0.25999999999999984,273.23033333333336
2018-01-20,17:30,20.729,273.29666666666668,94243.699999999997,77.779666666666671,316.89033333333333,299.27566666666672,25.745666666666672,130.72900000000001,276.75166666666672,2.8799999999999999,229.06666666666666,0.25999999999999984,273.22899999999998
2018-01-20,18:00,20.749,273.81233333333330,94208.433333333334,75.905666666666676,320.63366666666667,300.81766666666664,40.480000000000004,219.86533333333330,455.10466666666667,1.7566666666666666,231.76700000000000,0.25999999999999984,273.23199999999997
2018-01-20,18:30,20.770,274.57966666666675,94205.733333333337,73.324666666666658,324.34533333333337,304.30599999999993,38.081000000000003,205.36266666666663,426.60466666666673,2.3966666666666669,189.03400000000002,0.25999999999999984,273.23366666666669
2018-01-20,19:00,20.791,274.72566666666660,94188.866666666669,71.894666666666666,324.34666666666664,306.24966666666666,33.260000000000005,175.60666666666665,370.21866666666665,2.1133333333333333,216.77666666666664,0.25999999999999984,273.22866666666675
2018-01-20,19:30,20.812,274.97266666666673,94180.766666666663,70.575000000000003,325.19300000000004,304.90599999999995,32.902333333333331,174.89666666666665,364.74433333333320,2.0066666666666668,218.01133333333334,0.25999999999999984,273.22800000000001
2018-01-20,20:00,20.833,275.47766666666672,94197.766666666663,68.197666666666663,326.80533333333335,303.39200000000000,34.203000000000003,183.98666666666671,380.88266666666669,2.9366666666666670,201.12233333333333,0.25999999999999984,273.23166666666663
2018-01-20,20:30,20.854,275.81133333333338,94211.100000000006,67.837000000000018,327.62866666666662,301.88700000000000,29.334666666666674,157.69433333333333,324.91566666666660,3.4500000000000002,178.14466666666667,0.25999999999999984,273.23566666666670
2018-01-20,21:00,20.874,275.74333333333328,94224.566666666666,68.942666666666668,326.63766666666658,301.34966666666668,20.755000000000003,113.71599999999998,234.12800000000001,3.7366666666666668,185.52166666666665,0.25999999999999984,273.23466666666656
2018-01-20,21:30,20.895,276.04933333333344,94241.133333333331,68.528999999999996,327.66400000000004,273.33166666666671,25.114000000000001,158.61666666666667,323.39333333333320,3.0333333333333337,183.79933333333332,0.25999999999999984,273.23533333333324
2018-01-20,22:00,20.916,276.34766666666667,94260.433333333334,67.064666666666653,326.62366666666662,259.51733333333334,10.943000000000001,66.788666666666671,149.68633333333335,3.1566666666666667,191.52199999999999,0.25999999999999984,273.23233333333332
2018-01-20,22:30,20.937,275.72266666666673,94293.166666666672,70.059000000000012,323.00633333333337,280.19433333333330,4.1813333333333320,20.485000000000003,49.478666666666648,3.2166666666666668,178.11099999999999,0.25999999999999984,273.23233333333332
2018-01-20,23:00,20.958,274.90566666666666,94315.433333333334,73.589333333333343,319.31133333333332,281.60666666666674,0.91933333333333300,1.0916666666666666,8.4493333333333354,3.0499999999999998,177.35533333333333,0.25999999999999984,273.23133333333340
2018-01-20,23:30,20.979,274.24100000000004,94330.000000000000,76.519666666666666,314.84233333333333,260.79800000000000,0.63466666666666671,-3.2036666666666673,0.28566666666666668,3.3433333333333333,173.71166666666667,0.25999999999999984,273.23533333333330
2018-01-21,00:00,21.000,273.65433333333345,94351.699999999997,78.530000000000015,311.22199999999998,253.88566666666665,0.76766666666666661,-3.5799999999999996,9.25185853854297104E-019,2.9299999999999997,163.76666666666668,0.25999999999999984,273.23333333333335
